When you browse on this site, cookies collect data to enhance your experience and personalize the content and advertising you see.
Visit our Privacy Policy to learn more. By continuing to use the site, you agree to this use of cookies and data.
EN

Hourly Weather Romashkovo

Today, 4 July, Saturday

Time Temperature Precipitation Wind Pressure Humidity
00:00 +19°C° 1 mm 1 mps 736 mmHg 96%
01:00 +19°C° 1 mm 1 mps 736 mmHg 97%
02:00 +19°C° 1 mm 1 mps 736 mmHg 98%
03:00 +19°C° 0.4 mm 1 mps 736 mmHg 98%
04:00 +19°C° 0.4 mm 1 mps 736 mmHg 98%
05:00 +19°C° 0.4 mm 1 mps 736 mmHg 98%
06:00 +19°C° 0.1 mm 1 mps 736 mmHg 96%
07:00 +20°C° 0.1 mm 1 mps 736 mmHg 95%
08:00 +20°C° 0.1 mm 1 mps 737 mmHg 94%
09:00 +21°C° 0.1 mm 1 mps 737 mmHg 89%
10:00 +22°C° 0.1 mm 1 mps 737 mmHg 84%
11:00 +24°C° 0.1 mm 1 mps 737 mmHg 79%
12:00 +24°C° 0.2 mm 2 mps 737 mmHg 76%
13:00 +25°C° 0.2 mm 2 mps 737 mmHg 74%
14:00 +25°C° 0.2 mm 2 mps 737 mmHg 72%
15:00 +25°C° 0.2 mm 2 mps 737 mmHg 73%
16:00 +25°C° 0.2 mm 2 mps 736 mmHg 75%
17:00 +25°C° 0.2 mm 2 mps 736 mmHg 76%
18:00 +23°C° 0 mm 1 mps 736 mmHg 80%
19:00 +22°C° 0 mm 1 mps 737 mmHg 84%
20:00 +21°C° 0 mm 1 mps 737 mmHg 88%
21:00 +20°C° 0 mm 1 mps 737 mmHg 89%
22:00 +18°C° 0 mm 2 mps 737 mmHg 90%
23:00 +17°C° 0 mm 2 mps 737 mmHg 91%

Tomorrow, 5 July, Sunday

Time Temperature Precipitation Wind Pressure Humidity
00:00 +16°C° 0 mm 2 mps 737 mmHg 91%
01:00 +16°C° 0 mm 2 mps 737 mmHg 92%
02:00 +16°C° 0 mm 1 mps 737 mmHg 92%
03:00 +16°C° 0 mm 1 mps 737 mmHg 91%
04:00 +16°C° 0 mm 1 mps 737 mmHg 91%
05:00 +16°C° 0 mm 1 mps 737 mmHg 90%
06:00 +19°C° 0 mm 1 mps 737 mmHg 83%
07:00 +19°C° 0 mm 0 mps 737 mmHg 77%
08:00 +21°C° 0 mm 0 mps 737 mmHg 71%
09:00 +24°C° 0 mm 1 mps 737 mmHg 65%
10:00 +25°C° 0 mm 1 mps 737 mmHg 60%
11:00 +26°C° 0 mm 2 mps 737 mmHg 55%
12:00 +26°C° 0 mm 2 mps 736 mmHg 56%
13:00 +26°C° 0 mm 2 mps 736 mmHg 56%
14:00 +26°C° 0 mm 3 mps 736 mmHg 57%
15:00 +26°C° 0.1 mm 3 mps 736 mmHg 62%
16:00 +25°C° 0.1 mm 3 mps 736 mmHg 67%
17:00 +25°C° 0.1 mm 3 mps 735 mmHg 72%
18:00 +23°C° 0 mm 2 mps 735 mmHg 78%
19:00 +21°C° 0 mm 2 mps 735 mmHg 85%
20:00 +20°C° 0 mm 2 mps 735 mmHg 91%
21:00 +19°C° 0 mm 2 mps 735 mmHg 92%
22:00 +18°C° 0 mm 2 mps 735 mmHg 93%
23:00 +17°C° 0 mm 2 mps 735 mmHg 94%

Day after tomorrow, 6 July, Monday

Time Temperature Precipitation Wind Pressure Humidity
00:00 +17°C° 0 mm 2 mps 735 mmHg 94%
01:00 +17°C° 0 mm 2 mps 735 mmHg 94%
02:00 +16°C° 0 mm 2 mps 735 mmHg 95%
03:00 +17°C° 0 mm 2 mps 735 mmHg 94%
04:00 +17°C° 0 mm 2 mps 735 mmHg 94%
05:00 +17°C° 0 mm 2 mps 735 mmHg 93%
06:00 +19°C° 0 mm 2 mps 735 mmHg 88%
07:00 +21°C° 0 mm 3 mps 735 mmHg 82%
08:00 +22°C° 0 mm 3 mps 736 mmHg 77%
09:00 +24°C° 0 mm 3 mps 735 mmHg 73%
10:00 +25°C° 0 mm 4 mps 735 mmHg 69%
11:00 +26°C° 0 mm 4 mps 735 mmHg 65%
12:00 +27°C° 0 mm 4 mps 735 mmHg 65%
13:00 +27°C° 0 mm 4 mps 735 mmHg 65%
14:00 +28°C° 0 mm 4 mps 734 mmHg 65%
15:00 +27°C° 0 mm 4 mps 734 mmHg 67%
16:00 +27°C° 0 mm 4 mps 734 mmHg 70%
17:00 +27°C° 0 mm 4 mps 734 mmHg 72%
18:00 +25°C° 0.1 mm 3 mps 734 mmHg 79%
19:00 +24°C° 0.1 mm 3 mps 734 mmHg 85%
20:00 +21°C° 0.1 mm 2 mps 734 mmHg 91%
21:00 +21°C° 0.1 mm 2 mps 734 mmHg 93%
22:00 +20°C° 0.1 mm 2 mps 733 mmHg 94%
23:00 +19°C° 0.1 mm 2 mps 733 mmHg 96%

7 July, Tuesday

Time Temperature Precipitation Wind Pressure Humidity
00:00 +19°C° 0 mm 2 mps 733 mmHg 96%
01:00 +19°C° 0 mm 2 mps 733 mmHg 96%
02:00 +18°C° 0 mm 2 mps 733 mmHg 96%
03:00 +18°C° 0 mm 3 mps 733 mmHg 96%
04:00 +18°C° 0 mm 3 mps 733 mmHg 95%
05:00 +19°C° 0 mm 3 mps 733 mmHg 94%
06:00 +20°C° 0.1 mm 3 mps 733 mmHg 90%
07:00 +21°C° 0.1 mm 3 mps 733 mmHg 85%
08:00 +23°C° 0.1 mm 4 mps 733 mmHg 81%
09:00 +23°C° 0.8 mm 4 mps 733 mmHg 82%
10:00 +23°C° 0.8 mm 4 mps 733 mmHg 84%
11:00 +25°C° 0.8 mm 4 mps 733 mmHg 85%
12:00 +23°C° 1.2 mm 4 mps 733 mmHg 85%
13:00 +23°C° 1.2 mm 4 mps 733 mmHg 86%
14:00 +23°C° 1.2 mm 4 mps 733 mmHg 86%
15:00 +24°C° 0.3 mm 3 mps 733 mmHg 84%
16:00 +22°C° 0.3 mm 3 mps 733 mmHg 83%
17:00 +22°C° 0.3 mm 3 mps 733 mmHg 81%
18:00 +21°C° 0.1 mm 2 mps 734 mmHg 85%
19:00 +19°C° 0.1 mm 2 mps 734 mmHg 90%
20:00 +18°C° 0.1 mm 2 mps 734 mmHg 95%
21:00 +17°C° 0 mm 2 mps 734 mmHg 95%
22:00 +17°C° 0 mm 2 mps 734 mmHg 95%
23:00 +16°C° 0 mm 2 mps 734 mmHg 96%

8 July, Wednesday

Time Temperature Precipitation Wind Pressure Humidity
00:00 +16°C° 0.2 mm 2 mps 734 mmHg 94%
01:00 +16°C° 0.2 mm 3 mps 735 mmHg 92%
02:00 +14°C° 0.2 mm 3 mps 735 mmHg 91%
03:00 +15°C° 0.3 mm 2 mps 735 mmHg 92%
04:00 +15°C° 0.3 mm 2 mps 735 mmHg 94%
05:00 +14°C° 0.3 mm 1 mps 735 mmHg 96%
06:00 +15°C° 0.1 mm 1 mps 735 mmHg 94%
07:00 +15°C° 0.1 mm 2 mps 736 mmHg 91%
08:00 +16°C° 0.1 mm 2 mps 736 mmHg 89%
09:00 +17°C° 0.2 mm 2 mps 736 mmHg 82%
10:00 +18°C° 0.2 mm 3 mps 736 mmHg 75%
11:00 +19°C° 0.2 mm 3 mps 737 mmHg 69%
12:00 +20°C° 0.1 mm 3 mps 737 mmHg 66%
13:00 +20°C° 0.1 mm 4 mps 736 mmHg 63%
14:00 +20°C° 0.1 mm 4 mps 736 mmHg 61%
15:00 +20°C° 0 mm 4 mps 736 mmHg 62%
16:00 +20°C° 0 mm 4 mps 736 mmHg 62%
17:00 +19°C° 0 mm 4 mps 736 mmHg 63%
18:00 +18°C° 0 mm 3 mps 736 mmHg 70%
19:00 +16°C° 0 mm 3 mps 736 mmHg 77%
20:00 +15°C° 0 mm 2 mps 736 mmHg 84%
21:00 +14°C° 0 mm 2 mps 736 mmHg 86%
22:00 +13°C° 0 mm 2 mps 736 mmHg 89%
23:00 +12°C° 0 mm 2 mps 737 mmHg 92%

9 July, Thursday

Time Temperature Precipitation Wind Pressure Humidity
00:00 +10°C° 0 mm 2 mps 737 mmHg 93%
01:00 +10°C° 0 mm 2 mps 737 mmHg 94%
02:00 +10°C° 0 mm 2 mps 737 mmHg 95%
03:00 +10°C° 0.1 mm 2 mps 737 mmHg 93%
04:00 +10°C° 0.1 mm 2 mps 737 mmHg 92%
05:00 +12°C° 0.1 mm 2 mps 737 mmHg 90%
06:00 +12°C° 0.3 mm 3 mps 737 mmHg 86%
07:00 +13°C° 0.3 mm 3 mps 737 mmHg 82%
08:00 +14°C° 0.3 mm 4 mps 737 mmHg 78%
09:00 +14°C° 0.4 mm 4 mps 738 mmHg 76%
10:00 +15°C° 0.4 mm 4 mps 738 mmHg 74%
11:00 +17°C° 0.4 mm 4 mps 738 mmHg 72%
12:00 +17°C° 0.2 mm 4 mps 738 mmHg 69%
13:00 +18°C° 0.2 mm 4 mps 738 mmHg 66%
14:00 +19°C° 0.2 mm 4 mps 738 mmHg 63%
15:00 +19°C° 0.1 mm 4 mps 738 mmHg 64%
16:00 +19°C° 0.1 mm 4 mps 738 mmHg 64%
17:00 +19°C° 0.1 mm 3 mps 738 mmHg 64%
18:00 +18°C° 0 mm 3 mps 738 mmHg 72%
19:00 +16°C° 0 mm 3 mps 738 mmHg 79%
20:00 +15°C° 0 mm 2 mps 738 mmHg 86%
21:00 +14°C° 0 mm 2 mps 738 mmHg 89%
22:00 +13°C° 0 mm 2 mps 738 mmHg 92%
23:00 +12°C° 0 mm 2 mps 738 mmHg 95%
Show more